Time,TemperatureF,DewpointF,PressureIn,WindDirection,WindDirectionDegrees,WindSpeedMPH,WindSpeedGustMPH,Humidity,HourlyPrecipIn,Conditions,Clouds,dailyrainin,SoftwareType,DateUTC
2013-04-30 00:00:00,62.8,61.3,30.13,South,180,0.0,0.0,95,0.00,,,0.77,meteohub,2013-04-30 04:00:00,
2013-04-30 00:01:00,62.8,61.3,30.13,South,180,0.0,0.0,95,0.00,,,0.77,meteohub,2013-04-30 04:01:00,
2013-04-30 00:02:00,62.8,61.3,30.13,South,180,0.0,0.0,95,0.00,,,0.77,meteohub,2013-04-30 04:02:00,
2013-04-30 00:03:00,62.8,61.3,30.13,South,180,0.0,0.0,95,0.00,,,0.77,meteohub,2013-04-30 04:03:00,
2013-04-30 00:08:00,62.6,61.2,30.12,South,180,0.0,0.0,95,0.00,,,0.00,meteohub,2013-04-30 04:08:00,
2013-04-30 00:13:00,62.4,61.3,30.12,South,180,0.0,0.0,96,0.00,,,0.00,meteohub,2013-04-30 04:13:00,
2013-04-30 00:19:00,62.4,61.3,30.12,South,180,0.0,0.0,96,0.00,,,0.00,meteohub,2013-04-30 04:19:00,
2013-04-30 00:24:00,62.2,61.2,30.12,South,180,0.0,0.0,96,0.00,,,0.00,meteohub,2013-04-30 04:24:00,
2013-04-30 00:29:00,62.1,61.0,30.12,South,180,0.0,0.0,96,0.00,,,0.00,meteohub,2013-04-30 04:29:00,
2013-04-30 00:34:00,61.9,60.8,30.12,South,180,0.0,0.0,96,0.00,,,0.00,meteohub,2013-04-30 04:34:00,
2013-04-30 00:40:00,61.7,60.6,30.12,South,180,0.0,0.0,96,0.00,,,0.00,meteohub,2013-04-30 04:40:00,
2013-04-30 00:45:00,61.7,60.6,30.12,South,180,0.0,0.0,96,0.00,,,0.00,meteohub,2013-04-30 04:45:00,
2013-04-30 00:50:00,61.5,60.4,30.12,South,180,0.0,0.0,96,0.00,,,0.00,meteohub,2013-04-30 04:50:00,
2013-04-30 00:55:00,61.5,60.4,30.12,South,180,0.0,0.0,96,0.00,,,0.00,meteohub,2013-04-30 04:55:00,
2013-04-30 01:00:00,61.2,60.1,30.12,South,180,0.0,0.0,96,0.00,,,0.00,meteohub,2013-04-30 05:00:00,
2013-04-30 01:05:00,61.2,60.1,30.12,South,180,0.0,0.0,96,0.00,,,0.00,meteohub,2013-04-30 05:05:00,
2013-04-30 01:10:00,61.2,60.1,30.12,South,180,0.0,0.0,96,0.00,,,0.00,meteohub,2013-04-30 05:10:00,
2013-04-30 01:16:00,61.0,59.9,30.12,South,180,0.0,0.0,96,0.00,,,0.00,meteohub,2013-04-30 05:16:00,
2013-04-30 01:21:00,61.0,59.9,30.12,South,180,0.0,0.0,96,0.00,,,0.00,meteohub,2013-04-30 05:21:00,
2013-04-30 01:26:00,61.0,59.9,30.12,South,180,0.0,0.0,96,0.00,,,0.00,meteohub,2013-04-30 05:26:00,
2013-04-30 01:31:00,61.0,59.9,30.12,South,180,0.0,0.0,96,0.00,,,0.00,meteohub,2013-04-30 05:31:00,
2013-04-30 01:36:00,61.0,59.9,30.12,South,180,0.0,0.0,96,0.00,,,0.00,meteohub,2013-04-30 05:36:00,
2013-04-30 01:42:00,61.0,60.1,30.12,South,180,0.0,0.0,97,0.00,,,0.00,meteohub,2013-04-30 05:42:00,
2013-04-30 01:47:00,61.0,60.1,30.12,South,180,0.0,0.0,97,0.00,,,0.00,meteohub,2013-04-30 05:47:00,
2013-04-30 01:52:00,61.0,60.1,30.12,South,180,0.0,0.0,97,0.00,,,0.00,meteohub,2013-04-30 05:52:00,
2013-04-30 01:57:00,60.8,59.9,30.12,South,180,0.0,0.0,97,0.00,,,0.00,meteohub,2013-04-30 05:57:00,
2013-04-30 02:03:00,60.8,59.9,30.12,South,180,0.0,0.0,97,0.00,,,0.00,meteohub,2013-04-30 06:03:00,
2013-04-30 02:08:00,60.8,59.9,30.12,South,180,0.0,0.0,97,0.00,,,0.00,meteohub,2013-04-30 06:08:00,
2013-04-30 02:13:00,60.6,60.1,30.12,South,180,0.0,0.0,98,0.00,,,0.00,meteohub,2013-04-30 06:13:00,
2013-04-30 02:18:00,60.8,59.9,30.12,South,180,0.0,0.0,97,0.00,,,0.00,meteohub,2013-04-30 06:18:00,
2013-04-30 02:24:00,60.6,60.1,30.12,South,180,0.0,0.0,98,0.00,,,0.00,meteohub,2013-04-30 06:24:00,
2013-04-30 02:29:00,60.6,60.1,30.12,South,180,0.0,0.0,98,0.00,,,0.00,meteohub,2013-04-30 06:29:00,
2013-04-30 02:34:00,60.4,59.9,30.12,South,180,0.0,0.0,98,0.00,,,0.00,meteohub,2013-04-30 06:34:00,
2013-04-30 02:39:00,60.4,59.9,30.11,South,180,0.0,0.0,98,0.00,,,0.00,meteohub,2013-04-30 06:39:00,
2013-04-30 02:44:00,60.3,59.7,30.11,South,180,0.0,0.0,98,0.00,,,0.00,meteohub,2013-04-30 06:44:00,
2013-04-30 02:49:00,60.3,59.7,30.11,South,180,0.0,0.0,98,0.00,,,0.00,meteohub,2013-04-30 06:49:00,
2013-04-30 02:54:00,60.1,59.5,30.11,South,180,0.0,0.0,98,0.00,,,0.00,meteohub,2013-04-30 06:54:00,
2013-04-30 02:59:00,60.1,59.5,30.11,South,180,0.0,0.0,98,0.00,,,0.00,meteohub,2013-04-30 06:59:00,
2013-04-30 03:05:00,60.1,59.5,30.11,South,180,0.0,0.0,98,0.00,,,0.00,meteohub,2013-04-30 07:05:00,
2013-04-30 03:10:00,60.1,59.5,30.11,South,180,0.0,0.0,98,0.00,,,0.00,meteohub,2013-04-30 07:10:00,
2013-04-30 03:15:00,60.1,59.5,30.11,South,180,0.0,0.0,98,0.00,,,0.00,meteohub,2013-04-30 07:15:00,
2013-04-30 03:20:00,60.1,59.5,30.11,South,180,0.0,0.0,98,0.00,,,0.00,meteohub,2013-04-30 07:20:00,
2013-04-30 03:25:00,60.1,59.5,30.11,South,180,0.0,0.0,98,0.00,,,0.00,meteohub,2013-04-30 07:25:00,
2013-04-30 03:30:00,60.3,59.9,30.11,South,180,0.0,0.0,99,0.00,,,0.00,meteohub,2013-04-30 07:30:00,
2013-04-30 03:35:00,60.4,60.1,30.11,South,180,0.0,0.0,99,0.00,,,0.00,meteohub,2013-04-30 07:35:00,
2013-04-30 03:41:00,60.6,60.3,30.11,South,180,0.0,0.0,99,0.00,,,0.00,meteohub,2013-04-30 07:41:00,
2013-04-30 03:46:00,60.8,60.3,30.11,South,180,0.0,0.0,98,0.00,,,0.00,meteohub,2013-04-30 07:46:00,
2013-04-30 03:51:00,61.0,60.4,30.12,South,180,0.0,0.0,98,0.00,,,0.00,meteohub,2013-04-30 07:51:00,
2013-04-30 03:56:00,61.0,60.4,30.12,South,180,0.0,0.0,98,0.00,,,0.00,meteohub,2013-04-30 07:56:00,
2013-04-30 04:01:00,61.0,60.4,30.12,South,180,0.0,0.0,98,0.00,,,0.00,meteohub,2013-04-30 08:01:00,
2013-04-30 04:06:00,61.0,60.4,30.12,South,180,0.0,0.0,98,0.00,,,0.00,meteohub,2013-04-30 08:06:00,
2013-04-30 04:11:00,61.0,60.4,30.12,South,180,0.0,0.0,98,0.00,,,0.00,meteohub,2013-04-30 08:11:00,
2013-04-30 04:16:00,61.2,60.6,30.12,South,180,0.0,0.0,98,0.00,,,0.00,meteohub,2013-04-30 08:16:00,
2013-04-30 04:21:00,61.2,60.6,30.12,South,180,0.0,0.0,98,0.00,,,0.00,meteohub,2013-04-30 08:21:00,
2013-04-30 04:27:00,61.2,60.6,30.12,South,180,0.0,0.0,98,0.00,,,0.00,meteohub,2013-04-30 08:27:00,
2013-04-30 04:33:00,61.2,60.6,30.12,South,180,0.0,0.0,98,0.00,,,0.00,meteohub,2013-04-30 08:33:00,
2013-04-30 04:38:00,61.0,60.4,30.12,South,180,0.0,0.0,98,0.00,,,0.00,meteohub,2013-04-30 08:38:00,
2013-04-30 04:43:00,61.0,60.4,30.13,South,180,0.0,0.0,98,0.00,,,0.00,meteohub,2013-04-30 08:43:00,
2013-04-30 04:49:00,61.0,60.4,30.13,South,180,0.0,0.0,98,0.00,,,0.00,meteohub,2013-04-30 08:49:00,
2013-04-30 04:54:00,61.0,60.4,30.12,South,180,0.0,0.0,98,0.00,,,0.00,meteohub,2013-04-30 08:54:00,
2013-04-30 04:59:00,61.0,60.4,30.12,South,180,0.0,0.0,98,0.00,,,0.00,meteohub,2013-04-30 08:59:00,
2013-04-30 05:04:00,61.0,60.4,30.13,South,180,0.0,0.0,98,0.00,,,0.00,meteohub,2013-04-30 09:04:00,
2013-04-30 05:09:00,61.0,60.4,30.13,South,180,0.0,0.0,98,0.00,,,0.00,meteohub,2013-04-30 09:09:00,
2013-04-30 05:14:00,60.8,60.3,30.13,South,180,0.0,0.0,98,0.00,,,0.00,meteohub,2013-04-30 09:14:00,
2013-04-30 05:20:00,60.8,60.3,30.13,South,180,0.0,0.0,98,0.00,,,0.00,meteohub,2013-04-30 09:20:00,
2013-04-30 05:25:00,60.8,60.3,30.13,South,180,0.0,0.0,98,0.00,,,0.00,meteohub,2013-04-30 09:25:00,
2013-04-30 05:30:00,60.8,60.3,30.14,South,180,0.0,0.0,98,0.00,,,0.00,meteohub,2013-04-30 09:30:00,
2013-04-30 05:35:00,60.6,60.3,30.14,South,180,0.0,0.0,99,0.00,,,0.00,meteohub,2013-04-30 09:35:00,
2013-04-30 05:40:00,60.6,60.3,30.14,South,180,0.0,0.0,99,0.00,,,0.00,meteohub,2013-04-30 09:40:00,
2013-04-30 05:45:00,60.6,60.3,30.14,North,0,0.0,0.0,99,0.00,,,0.00,meteohub,2013-04-30 09:45:00,
2013-04-30 05:51:00,60.4,60.1,30.15,North,0,0.0,0.0,99,0.00,,,0.00,meteohub,2013-04-30 09:51:00,
2013-04-30 05:56:00,60.3,59.9,30.15,North,0,0.0,0.0,99,0.00,,,0.00,meteohub,2013-04-30 09:56:00,
2013-04-30 06:01:00,60.3,59.9,30.14,North,0,0.0,0.0,99,0.00,,,0.00,meteohub,2013-04-30 10:01:00,
2013-04-30 06:06:00,60.3,59.9,30.15,North,0,0.0,0.0,99,0.00,,,0.00,meteohub,2013-04-30 10:06:00,
2013-04-30 06:11:00,60.3,59.9,30.15,North,0,0.0,0.0,99,0.00,,,0.00,meteohub,2013-04-30 10:11:00,
2013-04-30 06:16:00,60.1,59.7,30.16,North,0,0.0,0.0,99,0.00,,,0.00,meteohub,2013-04-30 10:16:00,
2013-04-30 06:21:00,60.1,59.7,30.16,North,0,0.0,0.0,99,0.00,,,0.00,meteohub,2013-04-30 10:21:00,
2013-04-30 06:26:00,60.1,59.7,30.16,West,270,0.0,0.0,99,0.00,,,0.00,meteohub,2013-04-30 10:26:00,
2013-04-30 06:32:00,60.1,59.7,30.16,NE,45,0.0,0.0,99,0.00,,,0.00,meteohub,2013-04-30 10:32:00,
2013-04-30 06:37:00,60.1,59.7,30.16,NE,45,0.0,0.0,99,0.00,,,0.00,meteohub,2013-04-30 10:37:00,
2013-04-30 06:42:00,60.3,59.9,30.17,NE,45,0.0,0.0,99,0.00,,,0.00,meteohub,2013-04-30 10:42:00,
2013-04-30 06:47:00,60.3,59.9,30.17,NE,45,0.0,0.0,99,0.00,,,0.00,meteohub,2013-04-30 10:47:00,
2013-04-30 06:52:00,60.3,59.9,30.17,NE,45,0.0,0.0,99,0.00,,,0.00,meteohub,2013-04-30 10:52:00,
2013-04-30 06:57:00,60.3,59.9,30.17,NE,45,0.0,0.0,99,0.00,,,0.00,meteohub,2013-04-30 10:57:00,
2013-04-30 07:02:00,60.3,59.9,30.17,NE,45,0.0,0.0,99,0.00,,,0.00,meteohub,2013-04-30 11:02:00,
2013-04-30 07:07:00,60.4,60.1,30.18,NE,45,0.0,0.0,99,0.00,,,0.00,meteohub,2013-04-30 11:07:00,
2013-04-30 07:12:00,60.4,60.1,30.18,NE,45,0.0,0.0,99,0.00,,,0.00,meteohub,2013-04-30 11:12:00,
2013-04-30 07:17:00,60.6,60.3,30.18,NE,45,0.0,0.0,99,0.00,,,0.00,meteohub,2013-04-30 11:17:00,
2013-04-30 07:23:00,60.6,60.3,30.18,NE,45,0.0,0.0,99,0.00,,,0.00,meteohub,2013-04-30 11:23:00,
2013-04-30 07:28:00,60.8,60.3,30.18,North,0,0.0,0.0,98,0.00,,,0.00,meteohub,2013-04-30 11:28:00,
2013-04-30 07:33:00,60.8,60.3,30.18,North,0,0.0,0.0,98,0.00,,,0.00,meteohub,2013-04-30 11:33:00,
2013-04-30 07:38:00,61.0,60.4,30.19,North,0,0.0,0.0,98,0.00,,,0.00,meteohub,2013-04-30 11:38:00,
2013-04-30 07:43:00,61.0,60.4,30.19,North,0,0.0,0.0,98,0.00,,,0.00,meteohub,2013-04-30 11:43:00,
2013-04-30 07:48:00,61.2,60.6,30.19,North,0,0.0,0.0,98,0.00,,,0.00,meteohub,2013-04-30 11:48:00,
2013-04-30 07:53:00,61.2,60.6,30.19,North,0,0.0,0.0,98,0.00,,,0.00,meteohub,2013-04-30 11:53:00,
2013-04-30 07:59:00,61.2,60.6,30.19,North,0,0.0,0.0,98,0.00,,,0.00,meteohub,2013-04-30 11:59:00,
2013-04-30 08:04:00,61.3,60.8,30.20,North,0,0.0,0.0,98,0.00,,,0.00,meteohub,2013-04-30 12:04:00,
2013-04-30 08:09:00,61.3,60.8,30.19,NE,45,0.0,0.0,98,0.00,,,0.00,meteohub,2013-04-30 12:09:00,
2013-04-30 08:14:00,61.3,60.8,30.20,NE,45,0.0,0.0,98,0.00,,,0.00,meteohub,2013-04-30 12:14:00,
2013-04-30 08:19:00,61.3,60.8,30.20,NE,45,0.0,0.0,98,0.00,,,0.00,meteohub,2013-04-30 12:19:00,
2013-04-30 08:24:00,61.2,60.6,30.20,NE,45,0.0,0.0,98,0.00,,,0.00,meteohub,2013-04-30 12:24:00,
2013-04-30 08:30:00,61.2,60.6,30.20,NE,45,0.0,0.0,98,0.00,,,0.00,meteohub,2013-04-30 12:30:00,
2013-04-30 08:35:00,61.2,60.6,30.20,NE,45,0.0,0.0,98,0.00,,,0.00,meteohub,2013-04-30 12:35:00,
2013-04-30 08:40:00,61.3,60.8,30.20,NE,45,0.0,0.0,98,0.00,,,0.00,meteohub,2013-04-30 12:40:00,
2013-04-30 08:45:00,61.2,60.6,30.20,NE,45,0.0,0.0,98,0.00,,,0.00,meteohub,2013-04-30 12:45:00,
2013-04-30 08:50:00,61.2,60.6,30.21,NE,45,0.0,1.0,98,0.00,,,0.00,meteohub,2013-04-30 12:50:00,
2013-04-30 08:55:00,61.3,60.8,30.21,North,0,0.0,1.0,98,0.00,,,0.00,meteohub,2013-04-30 12:55:00,
2013-04-30 09:00:00,61.3,60.8,30.21,NE,45,0.0,0.0,98,0.00,,,0.00,meteohub,2013-04-30 13:00:00,
2013-04-30 09:05:00,61.5,61.0,30.21,NE,45,0.0,0.0,98,0.00,,,0.00,meteohub,2013-04-30 13:05:00,
2013-04-30 09:10:00,61.7,61.2,30.21,NE,45,0.0,0.0,98,0.00,,,0.00,meteohub,2013-04-30 13:10:00,
2013-04-30 09:16:00,61.7,61.2,30.21,NNW,338,0.0,0.0,98,0.00,,,0.00,meteohub,2013-04-30 13:16:00,
2013-04-30 09:21:00,61.9,61.3,30.21,North,0,0.0,0.0,98,0.00,,,0.00,meteohub,2013-04-30 13:21:00,
2013-04-30 09:26:00,62.1,61.5,30.21,NE,45,0.0,0.0,98,0.00,,,0.00,meteohub,2013-04-30 13:26:00,
2013-04-30 09:31:00,62.2,61.7,30.21,NW,315,0.0,0.0,98,0.00,,,0.00,meteohub,2013-04-30 13:31:00,
2013-04-30 09:36:00,62.1,61.5,30.22,East,90,0.0,0.0,98,0.00,,,0.00,meteohub,2013-04-30 13:36:00,
2013-04-30 09:41:00,62.1,61.2,30.21,NW,315,0.0,0.0,97,0.00,,,0.00,meteohub,2013-04-30 13:41:00,
2013-04-30 09:46:00,61.9,61.0,30.22,NW,315,0.0,0.0,97,0.00,,,0.00,meteohub,2013-04-30 13:46:00,
2013-04-30 09:51:00,61.7,60.6,30.22,East,90,0.0,0.0,96,0.00,,,0.00,meteohub,2013-04-30 13:51:00,
2013-04-30 09:57:00,61.5,60.1,30.22,NW,315,0.0,0.0,95,0.00,,,0.00,meteohub,2013-04-30 13:57:00,
2013-04-30 10:02:00,61.3,59.9,30.22,NE,45,0.0,0.0,95,0.00,,,0.00,meteohub,2013-04-30 14:02:00,
2013-04-30 10:07:00,61.3,59.9,30.22,NE,45,0.0,0.0,95,0.00,,,0.00,meteohub,2013-04-30 14:07:00,
2013-04-30 10:12:00,61.2,59.4,30.22,East,90,0.0,0.0,94,0.00,,,0.00,meteohub,2013-04-30 14:12:00,
2013-04-30 10:17:00,61.3,59.5,30.22,East,90,0.0,0.0,94,0.00,,,0.00,meteohub,2013-04-30 14:17:00,
2013-04-30 10:22:00,61.5,59.7,30.22,North,0,0.0,0.0,94,0.00,,,0.00,meteohub,2013-04-30 14:22:00,
2013-04-30 10:27:00,61.5,59.7,30.23,NE,45,0.0,0.0,94,0.00,,,0.00,meteohub,2013-04-30 14:27:00,
2013-04-30 10:32:00,61.3,59.4,30.23,North,0,0.0,0.0,93,0.00,,,0.00,meteohub,2013-04-30 14:32:00,
2013-04-30 10:37:00,61.3,59.4,30.23,North,0,0.0,0.0,93,0.00,,,0.00,meteohub,2013-04-30 14:37:00,
2013-04-30 10:43:00,61.3,59.4,30.23,North,0,0.0,0.0,93,0.00,,,0.00,meteohub,2013-04-30 14:43:00,
2013-04-30 10:48:00,61.3,59.4,30.23,North,0,0.0,0.0,93,0.00,,,0.00,meteohub,2013-04-30 14:48:00,
2013-04-30 10:53:00,61.5,59.5,30.23,North,0,0.0,0.0,93,0.00,,,0.00,meteohub,2013-04-30 14:53:00,
2013-04-30 10:58:00,61.5,59.2,30.23,North,0,0.0,0.0,92,0.00,,,0.00,meteohub,2013-04-30 14:58:00,
2013-04-30 11:04:00,61.5,59.2,30.23,North,0,0.0,0.0,92,0.00,,,0.00,meteohub,2013-04-30 15:04:00,
2013-04-30 11:09:00,61.7,59.4,30.23,NW,315,0.0,0.0,92,0.00,,,0.00,meteohub,2013-04-30 15:09:00,
2013-04-30 11:14:00,61.7,59.4,30.23,North,0,0.0,0.0,92,0.00,,,0.00,meteohub,2013-04-30 15:14:00,
2013-04-30 11:20:00,61.7,59.0,30.23,North,0,0.0,0.0,91,0.00,,,0.00,meteohub,2013-04-30 15:20:00,
2013-04-30 11:25:00,61.9,59.2,30.23,NE,45,0.0,0.0,91,0.00,,,0.00,meteohub,2013-04-30 15:25:00,
2013-04-30 11:30:00,61.9,59.2,30.23,NW,315,0.0,0.0,91,0.00,,,0.00,meteohub,2013-04-30 15:30:00,
2013-04-30 11:35:00,61.9,59.0,30.23,East,90,0.0,0.0,90,0.00,,,0.00,meteohub,2013-04-30 15:35:00,
2013-04-30 11:40:00,61.9,59.0,30.23,North,0,0.0,0.0,90,0.00,,,0.00,meteohub,2013-04-30 15:40:00,
2013-04-30 11:45:00,61.9,59.0,30.23,NW,315,0.0,0.0,90,0.00,,,0.00,meteohub,2013-04-30 15:45:00,
2013-04-30 11:51:00,62.1,59.2,30.23,North,0,0.0,0.0,90,0.00,,,0.00,meteohub,2013-04-30 15:51:00,
2013-04-30 11:56:00,62.1,59.2,30.22,NE,45,0.0,1.0,90,0.00,,,0.00,meteohub,2013-04-30 15:56:00,
2013-04-30 12:01:00,62.2,59.2,30.23,NE,45,0.0,1.0,90,0.00,,,0.00,meteohub,2013-04-30 16:01:00,
2013-04-30 12:06:00,62.4,59.4,30.23,East,90,0.0,1.0,90,0.00,,,0.00,meteohub,2013-04-30 16:06:00,
2013-04-30 12:11:00,62.4,59.2,30.23,SE,135,0.0,0.0,89,0.00,,,0.00,meteohub,2013-04-30 16:11:00,
2013-04-30 12:16:00,62.6,59.0,30.22,SE,135,0.0,0.0,88,0.00,,,0.00,meteohub,2013-04-30 16:16:00,
2013-04-30 12:21:00,63.0,59.0,30.22,NE,45,0.0,0.0,87,0.00,,,0.00,meteohub,2013-04-30 16:21:00,
2013-04-30 12:26:00,63.0,59.0,30.22,NE,45,0.0,0.0,87,0.00,,,0.00,meteohub,2013-04-30 16:26:00,
2013-04-30 12:32:00,63.0,58.6,30.22,North,0,0.0,0.0,86,0.00,,,0.00,meteohub,2013-04-30 16:32:00,
2013-04-30 12:37:00,63.0,58.6,30.23,NE,45,0.0,0.0,86,0.00,,,0.00,meteohub,2013-04-30 16:37:00,
2013-04-30 12:42:00,63.5,59.2,30.22,NE,45,0.0,0.0,86,0.00,,,0.00,meteohub,2013-04-30 16:42:00,
2013-04-30 12:47:00,63.7,59.0,30.22,North,0,0.0,4.0,85,0.00,,,0.00,meteohub,2013-04-30 16:47:00,
2013-04-30 12:52:00,63.5,58.6,30.22,North,0,0.0,4.0,84,0.00,,,0.00,meteohub,2013-04-30 16:52:00,
2013-04-30 12:57:00,63.7,58.8,30.22,North,0,0.0,4.0,84,0.00,,,0.00,meteohub,2013-04-30 16:57:00,
2013-04-30 13:02:00,63.9,59.0,30.22,NW,315,0.0,2.0,84,0.00,,,0.00,meteohub,2013-04-30 17:02:00,
2013-04-30 13:07:00,63.9,59.0,30.22,NW,315,0.0,1.0,84,0.00,,,0.00,meteohub,2013-04-30 17:07:00,
2013-04-30 13:12:00,64.0,59.2,30.22,NW,315,0.0,0.0,84,0.00,,,0.00,meteohub,2013-04-30 17:12:00,
2013-04-30 13:18:00,63.7,58.8,30.22,NW,315,0.0,0.0,84,0.00,,,0.00,meteohub,2013-04-30 17:18:00,
2013-04-30 13:23:00,63.7,58.8,30.22,North,0,0.0,0.0,84,0.00,,,0.00,meteohub,2013-04-30 17:23:00,
2013-04-30 13:28:00,63.5,58.6,30.22,North,0,0.0,0.0,84,0.00,,,0.00,meteohub,2013-04-30 17:28:00,
2013-04-30 13:33:00,63.3,58.5,30.22,NE,45,0.0,0.0,84,0.00,,,0.00,meteohub,2013-04-30 17:33:00,
2013-04-30 13:38:00,63.7,58.8,30.22,North,0,0.0,0.0,84,0.00,,,0.00,meteohub,2013-04-30 17:38:00,
2013-04-30 13:43:00,63.9,59.0,30.22,East,90,0.0,0.0,84,0.00,,,0.00,meteohub,2013-04-30 17:43:00,
2013-04-30 13:48:00,64.0,59.2,30.22,NE,45,0.0,0.0,84,0.00,,,0.00,meteohub,2013-04-30 17:48:00,
2013-04-30 13:53:00,64.0,58.8,30.22,NE,45,0.0,0.0,83,0.00,,,0.00,meteohub,2013-04-30 17:53:00,
2013-04-30 13:58:00,64.2,59.0,30.22,NE,45,0.0,0.0,83,0.00,,,0.00,meteohub,2013-04-30 17:58:00,
2013-04-30 14:03:00,64.6,59.7,30.21,North,0,0.0,0.0,84,0.00,,,0.00,meteohub,2013-04-30 18:03:00,
2013-04-30 14:08:00,64.9,59.7,30.21,NE,45,0.0,0.0,83,0.00,,,0.00,meteohub,2013-04-30 18:08:00,
2013-04-30 14:14:00,64.9,59.7,30.21,NW,315,0.0,0.0,83,0.00,,,0.00,meteohub,2013-04-30 18:14:00,
2013-04-30 14:19:00,64.9,59.4,30.22,NW,315,0.0,0.0,82,0.00,,,0.00,meteohub,2013-04-30 18:19:00,
2013-04-30 14:24:00,64.8,58.8,30.22,East,90,0.0,0.0,81,0.00,,,0.00,meteohub,2013-04-30 18:24:00,
2013-04-30 14:29:00,64.8,59.2,30.22,NE,45,0.0,0.0,82,0.00,,,0.00,meteohub,2013-04-30 18:29:00,
2013-04-30 14:34:00,64.8,59.2,30.22,NE,45,0.0,0.0,82,0.00,,,0.00,meteohub,2013-04-30 18:34:00,
2013-04-30 14:39:00,64.8,59.2,30.22,NE,45,0.0,0.0,82,0.00,,,0.00,meteohub,2013-04-30 18:39:00,
2013-04-30 14:44:00,64.9,59.4,30.22,East,90,0.0,0.0,82,0.00,,,0.00,meteohub,2013-04-30 18:44:00,
2013-04-30 14:49:00,65.3,59.7,30.22,NE,45,0.0,0.0,82,0.00,,,0.00,meteohub,2013-04-30 18:49:00,
2013-04-30 14:54:00,65.7,59.7,30.22,NW,315,0.0,0.0,81,0.00,,,0.00,meteohub,2013-04-30 18:54:00,
2013-04-30 14:59:00,65.8,59.5,30.22,NW,315,0.0,0.0,80,0.00,,,0.00,meteohub,2013-04-30 18:59:00,
2013-04-30 15:05:00,66.0,59.0,30.21,NW,315,0.0,0.0,78,0.00,,,0.00,meteohub,2013-04-30 19:05:00,
2013-04-30 15:10:00,65.8,58.5,30.21,NW,315,0.0,0.0,77,0.00,,,0.00,meteohub,2013-04-30 19:10:00,
2013-04-30 15:15:00,65.8,58.8,30.21,NW,315,0.0,0.0,78,0.00,,,0.00,meteohub,2013-04-30 19:15:00,
2013-04-30 15:21:00,66.2,58.8,30.21,NW,315,0.0,0.0,77,0.00,,,0.00,meteohub,2013-04-30 19:21:00,
2013-04-30 15:26:00,66.4,58.6,30.22,NW,315,0.0,0.0,76,0.00,,,0.00,meteohub,2013-04-30 19:26:00,
2013-04-30 15:31:00,66.6,58.8,30.21,NW,315,0.0,0.0,76,0.00,,,0.00,meteohub,2013-04-30 19:31:00,
2013-04-30 15:36:00,66.7,59.0,30.21,NNE,23,0.0,0.0,76,0.00,,,0.00,meteohub,2013-04-30 19:36:00,
2013-04-30 15:41:00,66.9,59.2,30.21,NNE,23,0.0,0.0,76,0.00,,,0.00,meteohub,2013-04-30 19:41:00,
2013-04-30 15:46:00,67.3,59.0,30.21,NW,315,0.0,0.0,75,0.00,,,0.00,meteohub,2013-04-30 19:46:00,
2013-04-30 16:42:00,67.3,58.6,30.21,NE,45,0.0,1.0,74,0.00,,,0.00,meteohub,2013-04-30 20:42:00,
2013-04-30 16:47:00,67.1,58.5,30.21,NE,45,0.0,2.0,74,0.00,,,0.00,meteohub,2013-04-30 20:47:00,
2013-04-30 16:52:00,66.9,58.8,30.21,NE,45,0.0,2.0,75,0.00,,,0.00,meteohub,2013-04-30 20:52:00,
2013-04-30 16:57:00,66.7,58.6,30.21,NE,45,0.0,2.0,75,0.00,,,0.00,meteohub,2013-04-30 20:57:00,
2013-04-30 17:02:00,66.6,58.5,30.22,NW,315,0.0,1.0,75,0.00,,,0.00,meteohub,2013-04-30 21:02:00,
2013-04-30 17:07:00,66.6,58.5,30.22,NW,315,0.0,1.0,75,0.00,,,0.00,meteohub,2013-04-30 21:07:00,
2013-04-30 17:12:00,66.6,58.5,30.22,NW,315,0.0,1.0,75,0.00,,,0.00,meteohub,2013-04-30 21:12:00,
2013-04-30 17:17:00,66.6,58.5,30.22,NW,315,0.0,1.0,75,0.00,,,0.00,meteohub,2013-04-30 21:17:00,
2013-04-30 17:22:00,66.6,58.5,30.22,NE,45,0.0,1.0,75,0.00,,,0.00,meteohub,2013-04-30 21:22:00,
2013-04-30 17:27:00,66.4,57.9,30.23,NNE,23,0.0,0.0,74,0.00,,,0.00,meteohub,2013-04-30 21:27:00,
2013-04-30 17:33:00,66.4,57.9,30.22,NNE,23,0.0,0.0,74,0.00,,,0.00,meteohub,2013-04-30 21:33:00,
2013-04-30 17:38:00,66.4,58.3,30.23,NNE,23,0.0,0.0,75,0.00,,,0.00,meteohub,2013-04-30 21:38:00,
2013-04-30 17:43:00,66.4,57.9,30.22,NNE,23,0.0,0.0,74,0.00,,,0.00,meteohub,2013-04-30 21:43:00,
2013-04-30 17:48:00,66.4,57.9,30.22,NNE,23,0.0,0.0,74,0.00,,,0.00,meteohub,2013-04-30 21:48:00,
2013-04-30 17:53:00,66.6,58.5,30.22,NNE,23,0.0,0.0,75,0.00,,,0.00,meteohub,2013-04-30 21:53:00,
2013-04-30 17:58:00,66.6,58.1,30.23,NE,45,0.0,0.0,74,0.00,,,0.00,meteohub,2013-04-30 21:58:00,
2013-04-30 18:03:00,66.6,57.2,30.23,NE,45,0.0,0.0,72,0.00,,,0.00,meteohub,2013-04-30 22:03:00,
2013-04-30 18:08:00,66.4,57.0,30.23,North,0,0.0,0.0,72,0.00,,,0.00,meteohub,2013-04-30 22:08:00,
2013-04-30 18:13:00,66.4,57.4,30.23,North,0,0.0,0.0,73,0.00,,,0.00,meteohub,2013-04-30 22:13:00,
2013-04-30 18:18:00,66.2,57.2,30.23,North,0,0.0,0.0,73,0.00,,,0.00,meteohub,2013-04-30 22:18:00,
2013-04-30 18:24:00,66.0,57.6,30.23,North,0,0.0,0.0,74,0.00,,,0.00,meteohub,2013-04-30 22:24:00,
2013-04-30 18:29:00,65.8,57.4,30.23,NE,45,0.0,0.0,74,0.00,,,0.00,meteohub,2013-04-30 22:29:00,
2013-04-30 18:34:00,65.7,57.2,30.23,NE,45,1.0,0.0,74,0.00,,,0.00,meteohub,2013-04-30 22:34:00,
2013-04-30 18:40:00,65.7,57.2,30.24,North,0,0.0,1.0,74,0.00,,,0.00,meteohub,2013-04-30 22:40:00,
2013-04-30 18:45:00,65.7,57.6,30.24,North,0,0.0,1.0,75,0.00,,,0.00,meteohub,2013-04-30 22:45:00,
2013-04-30 18:50:00,65.5,57.4,30.24,North,0,0.0,1.0,75,0.00,,,0.00,meteohub,2013-04-30 22:50:00,
2013-04-30 18:55:00,65.5,57.4,30.24,North,0,0.0,1.0,75,0.00,,,0.00,meteohub,2013-04-30 22:55:00,
2013-04-30 19:01:00,65.3,57.6,30.24,NW,315,0.0,1.0,76,0.00,,,0.00,meteohub,2013-04-30 23:01:00,
2013-04-30 19:06:00,65.1,57.4,30.25,West,270,0.0,1.0,76,0.00,,,0.00,meteohub,2013-04-30 23:06:00,
2013-04-30 19:11:00,64.9,57.2,30.25,North,0,0.0,1.0,76,0.00,,,0.00,meteohub,2013-04-30 23:11:00,
2013-04-30 19:16:00,64.8,57.0,30.25,North,0,0.0,0.0,76,0.00,,,0.00,meteohub,2013-04-30 23:16:00,
2013-04-30 19:21:00,64.8,57.0,30.25,NW,315,0.0,0.0,76,0.00,,,0.00,meteohub,2013-04-30 23:21:00,
2013-04-30 19:26:00,64.6,56.8,30.25,NW,315,0.0,0.0,76,0.00,,,0.00,meteohub,2013-04-30 23:26:00,
2013-04-30 19:31:00,64.4,56.7,30.25,NW,315,0.0,0.0,76,0.00,,,0.00,meteohub,2013-04-30 23:31:00,
2013-04-30 19:36:00,64.4,56.7,30.25,NE,45,0.0,0.0,76,0.00,,,0.00,meteohub,2013-04-30 23:36:00,
2013-04-30 19:41:00,64.2,56.8,30.25,NW,315,0.0,0.0,77,0.00,,,0.00,meteohub,2013-04-30 23:41:00,
2013-04-30 19:46:00,64.2,56.8,30.25,NW,315,0.0,0.0,77,0.00,,,0.00,meteohub,2013-04-30 23:46:00,
2013-04-30 19:51:00,64.0,57.0,30.26,NW,315,0.0,0.0,78,0.00,,,0.00,meteohub,2013-04-30 23:51:00,
2013-04-30 19:56:00,64.0,57.0,30.25,NW,315,0.0,0.0,78,0.00,,,0.00,meteohub,2013-04-30 23:56:00,
2013-04-30 20:01:00,63.9,57.2,30.25,NW,315,0.0,0.0,79,0.00,,,0.00,meteohub,2013-05-01 00:01:00,
2013-04-30 20:07:00,63.7,57.0,30.26,NW,315,0.0,0.0,79,0.00,,,0.00,meteohub,2013-05-01 00:07:00,
2013-04-30 20:12:00,63.7,56.7,30.26,NW,315,0.0,0.0,78,0.00,,,0.00,meteohub,2013-05-01 00:12:00,
2013-04-30 20:17:00,63.3,56.3,30.26,North,0,0.0,0.0,78,0.00,,,0.00,meteohub,2013-05-01 00:17:00,
2013-04-30 20:22:00,63.1,56.1,30.26,North,0,0.0,0.0,78,0.00,,,0.00,meteohub,2013-05-01 00:22:00,
2013-04-30 20:27:00,63.0,55.9,30.26,North,0,0.0,0.0,78,0.00,,,0.00,meteohub,2013-05-01 00:27:00,
2013-04-30 20:32:00,62.8,55.8,30.27,North,0,0.0,0.0,78,0.00,,,0.00,meteohub,2013-05-01 00:32:00,
2013-04-30 20:37:00,62.6,55.6,30.26,North,0,0.0,0.0,78,0.00,,,0.00,meteohub,2013-05-01 00:37:00,
2013-04-30 20:42:00,62.4,55.8,30.27,North,0,0.0,0.0,79,0.00,,,0.00,meteohub,2013-05-01 00:42:00,
2013-04-30 20:48:00,62.1,55.8,30.26,North,0,0.0,0.0,80,0.00,,,0.00,meteohub,2013-05-01 00:48:00,
2013-04-30 20:53:00,61.9,55.9,30.26,North,0,0.0,0.0,81,0.00,,,0.00,meteohub,2013-05-01 00:53:00,
2013-04-30 20:58:00,61.5,55.6,30.26,North,0,0.0,0.0,81,0.00,,,0.00,meteohub,2013-05-01 00:58:00,
2013-04-30 21:03:00,61.2,55.6,30.26,North,0,0.0,0.0,82,0.00,,,0.00,meteohub,2013-05-01 01:03:00,
2013-04-30 21:08:00,60.8,55.2,30.27,North,0,0.0,0.0,82,0.00,,,0.00,meteohub,2013-05-01 01:08:00,
2013-04-30 21:13:00,60.4,55.6,30.27,North,0,0.0,0.0,84,0.00,,,0.00,meteohub,2013-05-01 01:13:00,
2013-04-30 21:18:00,60.1,55.2,30.27,North,0,0.0,0.0,84,0.00,,,0.00,meteohub,2013-05-01 01:18:00,
2013-04-30 21:24:00,59.9,55.4,30.27,North,0,0.0,0.0,85,0.00,,,0.00,meteohub,2013-05-01 01:24:00,
2013-04-30 21:29:00,59.5,55.0,30.27,North,0,0.0,0.0,85,0.00,,,0.00,meteohub,2013-05-01 01:29:00,
2013-04-30 21:36:00,59.2,55.0,30.27,North,0,0.0,0.0,86,0.00,,,0.00,meteohub,2013-05-01 01:36:00,
2013-04-30 21:41:00,59.0,54.9,30.27,North,0,0.0,0.0,86,0.00,,,0.00,meteohub,2013-05-01 01:41:00,
2013-04-30 21:46:00,58.8,55.0,30.27,North,0,0.0,0.0,87,0.00,,,0.00,meteohub,2013-05-01 01:46:00,
2013-04-30 21:51:00,58.6,55.0,30.27,North,0,0.0,0.0,88,0.00,,,0.00,meteohub,2013-05-01 01:51:00,
2013-04-30 21:56:00,58.3,54.7,30.28,North,0,0.0,0.0,88,0.00,,,0.00,meteohub,2013-05-01 01:56:00,
2013-04-30 22:02:00,58.1,54.9,30.27,North,0,0.0,0.0,89,0.00,,,0.00,meteohub,2013-05-01 02:02:00,
2013-04-30 22:07:00,57.9,54.7,30.28,North,0,0.0,0.0,89,0.00,,,0.00,meteohub,2013-05-01 02:07:00,
2013-04-30 22:12:00,57.9,55.0,30.28,North,0,0.0,0.0,90,0.00,,,0.00,meteohub,2013-05-01 02:12:00,
2013-04-30 22:17:00,57.7,54.9,30.28,North,0,0.0,0.0,90,0.00,,,0.00,meteohub,2013-05-01 02:17:00,
2013-04-30 22:22:00,57.4,54.5,30.28,North,0,0.0,0.0,90,0.00,,,0.00,meteohub,2013-05-01 02:22:00,
2013-04-30 22:28:00,57.4,54.5,30.28,North,0,0.0,0.0,90,0.00,,,0.00,meteohub,2013-05-01 02:28:00,
2013-04-30 22:33:00,57.2,54.7,30.28,North,0,0.0,0.0,91,0.00,,,0.00,meteohub,2013-05-01 02:33:00,
2013-04-30 22:38:00,57.0,54.7,30.28,North,0,0.0,0.0,92,0.00,,,0.00,meteohub,2013-05-01 02:38:00,
2013-04-30 22:43:00,57.0,54.7,30.28,North,0,0.0,0.0,92,0.00,,,0.00,meteohub,2013-05-01 02:43:00,
2013-04-30 22:49:00,56.8,54.9,30.27,North,0,0.0,0.0,93,0.00,,,0.00,meteohub,2013-05-01 02:49:00,
2013-04-30 22:54:00,56.7,54.7,30.27,North,0,0.0,0.0,93,0.00,,,0.00,meteohub,2013-05-01 02:54:00,
2013-04-30 22:59:00,56.5,54.5,30.27,North,0,0.0,0.0,93,0.00,,,0.00,meteohub,2013-05-01 02:59:00,
2013-04-30 23:04:00,56.3,54.3,30.27,North,0,0.0,0.0,93,0.00,,,0.00,meteohub,2013-05-01 03:04:00,
2013-04-30 23:09:00,56.3,54.3,30.27,North,0,0.0,0.0,93,0.00,,,0.00,meteohub,2013-05-01 03:09:00,
2013-04-30 23:14:00,56.3,54.3,30.27,North,0,0.0,0.0,93,0.00,,,0.00,meteohub,2013-05-01 03:14:00,
2013-04-30 23:20:00,56.3,54.7,30.27,North,0,0.0,0.0,94,0.00,,,0.00,meteohub,2013-05-01 03:20:00,
2013-04-30 23:25:00,56.3,54.7,30.27,North,0,0.0,0.0,94,0.00,,,0.00,meteohub,2013-05-01 03:25:00,
2013-04-30 23:30:00,56.3,54.7,30.27,North,0,0.0,0.0,94,0.00,,,0.00,meteohub,2013-05-01 03:30:00,
2013-04-30 23:35:00,56.3,54.9,30.27,North,0,0.0,0.0,95,0.00,,,0.00,meteohub,2013-05-01 03:35:00,
2013-04-30 23:40:00,56.5,55.0,30.27,North,0,0.0,0.0,95,0.00,,,0.00,meteohub,2013-05-01 03:40:00,
2013-04-30 23:45:00,56.5,55.0,30.27,North,0,0.0,0.0,95,0.00,,,0.00,meteohub,2013-05-01 03:45:00,
2013-04-30 23:50:00,56.7,55.2,30.27,North,0,0.0,0.0,95,0.00,,,0.00,meteohub,2013-05-01 03:50:00,
2013-04-30 23:55:00,56.7,55.2,30.27,North,0,0.0,0.0,95,0.00,,,0.00,meteohub,2013-05-01 03:55:00,